Tracking 32579 objects as of 15-Dec-2025
HD Live streaming from Space Station
objects crossing your sky now

STARLINK-34546

Track STARLINK-34546 now!
10-day predictions
STARLINK-34546 is classified as:


NORAD ID: 64718
Int'l Code: 2025-142Y
Perigee: 577.1 km
Apogee: 581.3 km
Inclination: 70.0 °
Period: 96.1 minutes
Semi major axis: 6950 km
RCS: Unknown
Launch date: June 28, 2025
Source: United States (US)
Launch site: AIR FORCE WESTERN TEST RANGE (AFWTR)
Your satellite tracking list
Your tracking list is empty




NASA's NSSDC Master Catalog

Two Line Element Set (TLE):
1 64718U 25142Y   25348.89564235  .00001596  00000-0  14158-3 0  9997
2 64718  70.0006 168.0808 0003024 270.0386  90.0426 14.98318342 26953
Source of the keplerian elements: AFSPC